Regional Weather Roundup
Issued by NWS

Home | Current Version | Previous Version | Text Only | Print | Product List | Glossary Off
Versions: 1 2 3 4 5 6 7 8 9 10 11 12 13 14 15 16 17 18 19 20 21 22 23 24 25 26 27 28

000
ASUS45 KBOI 141010
RWRID

IDAHO REGIONAL WEATHER ROUNDUP
NATIONAL WEATHER SERVICE BOISE ID
300 AM MST THU DEC 14 2017

NOTE: "FAIR" INDICATES FEW OR NO CLOUDS BELOW 12000 FEET
WITH NO SIGNIFICANT WEATHER AND/OR OBSTRUCTIONS TO VISIBILITY

IDZ012-014-141100-
SOUTHWEST IDAHO


CITY           SKY/WX    TMP DP  RH WIND       PRES   REMARKS
BOISE          CLOUDY    25  21  85 S12       30.51R WCI  14
CALDWELL       NOT AVBL
MOUNTAIN HOME  CLOUDY    24  24 100 E7        30.52R FOG     WCI  16
$$

IDZ016-017-141100-
SOUTHCENTRAL IDAHO


CITY           SKY/WX    TMP DP  RH WIND       PRES   REMARKS
BURLEY         CLOUDY    23  20  88 CALM      30.45R
JEROME         HAZE      25  19  78 N7        30.46R VSB 1   WCI  17
TWIN FALLS     FOG       23  22  96 CALM      30.44S VSB 1/2
$$

IDZ019>023-141100-
SOUTHEAST IDAHO


CITY           SKY/WX    TMP DP  RH WIND       PRES   REMARKS
IDAHO FALLS    FOG       22  21  96 S5        30.43R VSB 1/2 WCI  16
POCATELLO      CLOUDY    20  19  96 SW8       30.44R FOG     WCI  10
REXBURG        FOG       19  19 100 S3        30.40S VSB 1/4
$$

IDZ006-010-011-018-031-032-141100-
CENTRAL IDAHO MOUNTAINS


CITY           SKY/WX    TMP DP  RH WIND       PRES   REMARKS
MCCALL         PTCLDY    14  10  84 CALM      30.37F FOG
HAILEY         CLEAR     19  19 100 NW9       30.42R WCI   9
STANLEY          N/A     15   9  76 CALM      30.42R
SALMON         CLOUDY    21  18  88 CALM      30.50S
CHALLIS        FOG       17  15  92 CALM      30.46R VSB 1/4
$$

IDZ002-004-006-007-026-141100-
NORTHERN IDAHO


CITY           SKY/WX    TMP DP  RH WIND       PRES   REMARKS
LEWISTON       CLOUDY    32  27  81 E3        30.57S
LOWELL           N/A     32  30  92 CALM      30.59R
COEUR D`ALENE  CLOUDY    30  27  88 N8        30.54R WCI  22
MULLAN PASS    PTCLDY    22  20  92 S5        30.37S WCI  16
$$




USA.gov is the U.S. government's official web portal to all federal, state and local government web resources and services.